COSMOS 2251 DEB, 35043

Orbit data source: Space-Track

COSMOS 2251 DEB, 35043 is space debris in LEO originally from a launch on Wed, 16 Jun 1993 UTC launched from the Plesetsk Missile And Space Complex (PKMTR). The debris from Iridium 33, an American commercial communications satellite, has been tracked extensively since its accidental collision with the defunct Russian satellite Cosmos 2251 in 2009. This event, occurring at high speed in low Earth orbit (LEO), generated thousands of pieces of space debris, significantly increasing the risk of further collisions. The Iridium 33 debris cloud has impacted space traffic management and orbital debris mitigation strategies, making it a subject of ongoing study in space situational awareness.

Loading next visibility...
Identifier
35043, 1993-036AHG
Orbit
LEO
Country
Flag of CISCIS
Related business
Manufacturer
Unknown
Mission
Spacecraft
Bus & Motor
Unknown
Mass
Unknown
Launch date (UTC)
1993-06-16 (33 years ago)
Launch vehicle
Unknown
Launch site
Plesetsk Missile And Space Complex (PKMTR)
Object type
Payload
Rocket body
Debris
Shape & HBR
Unknown shape, 0.1 m
Radar Cross Section
Small (<0.1 m²)

Expand to show TLE details & history
Last TLE update: 3 days ago

TLE from 3 days ago
0 COSMOS 2251 DEB
1 35043U 93036AHG 26235.49712683  .00022075  00000-0  21820-2 0  9995
2 35043  73.9443 260.0316 0073039  40.0444 320.6088 14.89840037711823
Epoch: 2026-08-23T11:55Z
TLE epoch observation values (Epoch: 2026-08-23T11:55:51.758Z)
Latitude
-0.00007°
Longitude
109.27359°
Altitude
561.869 km
Speed
7.602 km/s
True Right ascension
17h 20m 07s
True Declination
0° 00' 00"
Sunlit
Object was in daylight at epoch
Visualization orbit readout
Latitude
Unknown
Longitude
Unknown
Altitude
Unknown
Speed
Unknown
Apparent Right ascension
Unknown
Apparent Declination
Unknown
Sunlit
N/A
Visualization observer readout
Local Sidereal Time
23:48:32
Azimuth
Unknown
Elevation
Unknown
Doppler factor
Unknown
Orbital elements
Apogee altitude
646.946 km
Perigee altitude
545.069 km
Semi-major axis
6,974.145 km
Eccentricity
0.0073
Inclination
73.9443°
RAAN
260.0316°
Arg. of periapsis
40.0444°
True anomaly
320.07389°
Mean anomaly
320.6088°
Eccentric anomaly
320.34172°
Mean motion
3.72655 °/min
Orbital period
96.6 mins
BSTAR
0.002182
Loading maneuver chart data...
Computing Atmospheric mass density...
Loading historical data...
Loading historical data...
Loading historical data...
Loading historical data...
Loading historical data...
Loading historical data...
Loading historical data...

Documentation

Showing up to 5 results
|